When you browse on this site, cookies collect data to enhance your experience and personalize the content and advertising you see.
Visit our Privacy Policy to learn more. By continuing to use the site, you agree to this use of cookies and data.
  • In Lithuania
  • List of Countries
  • For 7 days
  • Water Temperature
  • Satellite Maps
  • Weather Map
  • Weather Widgets
  • user-avatar
    Login

    Hourly Weather Stukovo

    Today, 22 July, Monday

    Time Temperature Precipitation Wind Pressure Humidity
    00:00 +13°C° 0 mm 2 mps 737 mmHg 78%
    01:00 +13°C° 0 mm 1 mps 737 mmHg 80%
    02:00 +12°C° 0 mm 1 mps 737 mmHg 82%
    03:00 +12°C° 0 mm 1 mps 736 mmHg 84%
    04:00 +12°C° 0 mm 1 mps 736 mmHg 83%
    05:00 +13°C° 0 mm 1 mps 737 mmHg 82%
    06:00 +14°C° 0 mm 1 mps 737 mmHg 81%
    07:00 +16°C° 0 mm 1 mps 737 mmHg 74%
    08:00 +19°C° 0 mm 1 mps 737 mmHg 66%
    09:00 +21°C° 0 mm 1 mps 737 mmHg 59%
    10:00 +22°C° 0 mm 1 mps 736 mmHg 54%
    11:00 +23°C° 0 mm 1 mps 736 mmHg 50%
    12:00 +24°C° 0 mm 1 mps 736 mmHg 46%
    13:00 +25°C° 0 mm 1 mps 736 mmHg 45%
    14:00 +25°C° 0 mm 1 mps 736 mmHg 44%
    15:00 +25°C° 0 mm 1 mps 735 mmHg 43%
    16:00 +25°C° 0 mm 1 mps 735 mmHg 46%
    17:00 +25°C° 0 mm 1 mps 735 mmHg 50%
    18:00 +24°C° 0 mm 2 mps 735 mmHg 53%
    19:00 +21°C° 0 mm 2 mps 735 mmHg 59%
    20:00 +19°C° 0 mm 2 mps 735 mmHg 65%
    21:00 +17°C° 0 mm 2 mps 735 mmHg 71%
    22:00 +17°C° 0 mm 2 mps 734 mmHg 75%
    23:00 +16°C° 0 mm 2 mps 734 mmHg 79%

    Tomorrow, 23 July, Tuesday

    Time Temperature Precipitation Wind Pressure Humidity
    00:00 +15°C° 0 mm 2 mps 734 mmHg 82%
    01:00 +15°C° 0 mm 2 mps 734 mmHg 84%
    02:00 +14°C° 0 mm 2 mps 734 mmHg 86%
    03:00 +14°C° 0 mm 2 mps 733 mmHg 88%
    04:00 +14°C° 0 mm 2 mps 734 mmHg 86%
    05:00 +15°C° 0 mm 2 mps 734 mmHg 84%
    06:00 +14°C° 0 mm 3 mps 734 mmHg 83%
    07:00 +17°C° 0 mm 3 mps 734 mmHg 77%
    08:00 +19°C° 0 mm 3 mps 734 mmHg 71%
    09:00 +20°C° 0 mm 3 mps 734 mmHg 65%
    10:00 +22°C° 0 mm 3 mps 734 mmHg 62%
    11:00 +24°C° 0 mm 3 mps 734 mmHg 58%
    12:00 +25°C° 0 mm 3 mps 734 mmHg 55%
    13:00 +25°C° 0 mm 3 mps 733 mmHg 55%
    14:00 +26°C° 0 mm 3 mps 733 mmHg 56%
    15:00 +26°C° 0 mm 3 mps 733 mmHg 56%
    16:00 +26°C° 0 mm 3 mps 733 mmHg 59%
    17:00 +25°C° 0 mm 3 mps 733 mmHg 61%
    18:00 +25°C° 0 mm 3 mps 733 mmHg 64%
    19:00 +24°C° 0.1 mm 3 mps 733 mmHg 68%
    20:00 +21°C° 0.1 mm 3 mps 733 mmHg 72%
    21:00 +19°C° 0.1 mm 3 mps 732 mmHg 76%
    22:00 +18°C° 0.7 mm 3 mps 732 mmHg 81%
    23:00 +18°C° 0.7 mm 2 mps 732 mmHg 87%

    Day after tomorrow, 24 July, Wednesday

    Time Temperature Precipitation Wind Pressure Humidity
    00:00 +17°C° 0.7 mm 2 mps 732 mmHg 92%
    01:00 +17°C° 1.4 mm 2 mps 732 mmHg 94%
    02:00 +17°C° 1.4 mm 3 mps 732 mmHg 96%
    03:00 +16°C° 1.4 mm 3 mps 731 mmHg 98%
    04:00 +16°C° 2.6 mm 3 mps 732 mmHg 97%
    05:00 +15°C° 2.6 mm 4 mps 732 mmHg 96%
    06:00 +14°C° 2.6 mm 4 mps 732 mmHg 95%
    07:00 +15°C° 0 mm 4 mps 732 mmHg 93%
    08:00 +17°C° 0 mm 3 mps 733 mmHg 90%
    09:00 +18°C° 0 mm 3 mps 733 mmHg 88%
    10:00 +18°C° 0 mm 3 mps 733 mmHg 84%
    11:00 +19°C° 0 mm 3 mps 733 mmHg 80%
    12:00 +19°C° 0 mm 3 mps 734 mmHg 76%
    13:00 +20°C° 0 mm 2 mps 734 mmHg 71%
    14:00 +21°C° 0 mm 2 mps 734 mmHg 65%
    15:00 +23°C° 0 mm 2 mps 734 mmHg 60%
    16:00 +23°C° 0 mm 2 mps 734 mmHg 61%
    17:00 +23°C° 0 mm 2 mps 735 mmHg 61%
    18:00 +23°C° 0 mm 2 mps 735 mmHg 62%
    19:00 +20°C° 0 mm 2 mps 735 mmHg 69%
    20:00 +18°C° 0 mm 2 mps 735 mmHg 75%
    21:00 +16°C° 0 mm 2 mps 735 mmHg 82%
    22:00 +16°C° 0 mm 1 mps 735 mmHg 84%
    23:00 +15°C° 0 mm 1 mps 735 mmHg 87%

    25 July, Thursday

    Time Temperature Precipitation Wind Pressure Humidity
    00:00 +15°C° 0 mm 1 mps 735 mmHg 89%
    01:00 +15°C° 0 mm 2 mps 735 mmHg 89%
    02:00 +14°C° 0 mm 2 mps 736 mmHg 89%
    03:00 +14°C° 0 mm 2 mps 736 mmHg 89%
    04:00 +15°C° 0 mm 2 mps 736 mmHg 88%
    05:00 +15°C° 0 mm 2 mps 736 mmHg 87%
    06:00 +15°C° 0 mm 2 mps 736 mmHg 86%
    07:00 +17°C° 0 mm 2 mps 736 mmHg 81%
    08:00 +18°C° 0 mm 3 mps 736 mmHg 76%
    09:00 +20°C° 0 mm 3 mps 737 mmHg 72%
    10:00 +21°C° 0.3 mm 3 mps 736 mmHg 69%
    11:00 +22°C° 0.3 mm 3 mps 736 mmHg 66%
    12:00 +24°C° 0.3 mm 3 mps 736 mmHg 63%
    13:00 +25°C° 0.6 mm 3 mps 736 mmHg 62%
    14:00 +25°C° 0.6 mm 3 mps 736 mmHg 61%
    15:00 +25°C° 0.6 mm 3 mps 736 mmHg 60%
    16:00 +25°C° 0.6 mm 3 mps 736 mmHg 65%
    17:00 +25°C° 0.6 mm 3 mps 736 mmHg 69%
    18:00 +24°C° 0.6 mm 2 mps 735 mmHg 73%
    19:00 +21°C° 0.3 mm 2 mps 735 mmHg 76%
    20:00 +20°C° 0.3 mm 2 mps 735 mmHg 79%
    21:00 +18°C° 0.3 mm 2 mps 735 mmHg 81%
    22:00 +17°C° 0 mm 2 mps 735 mmHg 84%
    23:00 +17°C° 0 mm 2 mps 735 mmHg 87%

    26 July, Friday

    Time Temperature Precipitation Wind Pressure Humidity
    00:00 +16°C° 0 mm 3 mps 735 mmHg 90%
    01:00 +16°C° 0 mm 3 mps 735 mmHg 92%
    02:00 +14°C° 0 mm 3 mps 735 mmHg 94%
    03:00 +14°C° 0 mm 3 mps 735 mmHg 96%
    04:00 +15°C° 0 mm 2 mps 735 mmHg 95%
    05:00 +15°C° 0 mm 2 mps 735 mmHg 95%
    06:00 +15°C° 0 mm 2 mps 735 mmHg 95%
    07:00 +17°C° 0.1 mm 3 mps 735 mmHg 90%
    08:00 +18°C° 0.1 mm 3 mps 735 mmHg 86%
    09:00 +20°C° 0.1 mm 3 mps 735 mmHg 81%
    10:00 +21°C° 1.5 mm 3 mps 735 mmHg 78%
    11:00 +22°C° 1.5 mm 3 mps 735 mmHg 75%
    12:00 +22°C° 1.5 mm 3 mps 735 mmHg 72%
    13:00 +23°C° 1.2 mm 4 mps 735 mmHg 72%
    14:00 +23°C° 1.2 mm 4 mps 735 mmHg 72%
    15:00 +23°C° 1.2 mm 4 mps 735 mmHg 71%
    16:00 +24°C° 0.5 mm 3 mps 735 mmHg 73%
    17:00 +24°C° 0.5 mm 2 mps 735 mmHg 74%
    18:00 +24°C° 0.5 mm 1 mps 735 mmHg 75%
    19:00 +22°C° 0.1 mm 1 mps 735 mmHg 77%
    20:00 +21°C° 0.1 mm 1 mps 735 mmHg 79%
    21:00 +19°C° 0.1 mm 1 mps 735 mmHg 81%
    22:00 +18°C° 0 mm 1 mps 735 mmHg 83%
    23:00 +17°C° 0 mm 2 mps 735 mmHg 84%

    27 July, Saturday

    Time Temperature Precipitation Wind Pressure Humidity
    00:00 +16°C° 0 mm 2 mps 735 mmHg 85%
    01:00 +16°C° 0 mm 2 mps 735 mmHg 85%
    02:00 +15°C° 0 mm 2 mps 735 mmHg 85%
    03:00 +15°C° 0 mm 2 mps 735 mmHg 85%
    04:00 +15°C° 0 mm 2 mps 735 mmHg 85%
    05:00 +15°C° 0 mm 2 mps 735 mmHg 85%
    06:00 +15°C° 0 mm 2 mps 735 mmHg 84%
    07:00 +17°C° 0 mm 2 mps 735 mmHg 79%
    08:00 +19°C° 0 mm 2 mps 736 mmHg 73%
    09:00 +21°C° 0 mm 3 mps 736 mmHg 68%
    10:00 +22°C° 0.5 mm 3 mps 736 mmHg 66%
    11:00 +24°C° 0.5 mm 3 mps 736 mmHg 65%
    12:00 +25°C° 0.5 mm 4 mps 736 mmHg 63%
    13:00 +25°C° 1.3 mm 4 mps 736 mmHg 64%
    14:00 +25°C° 1.3 mm 4 mps 736 mmHg 64%
    15:00 +26°C° 1.3 mm 4 mps 736 mmHg 64%
    16:00 +25°C° 0.8 mm 3 mps 736 mmHg 67%
    17:00 +25°C° 0.8 mm 2 mps 736 mmHg 70%
    18:00 +25°C° 0.8 mm 2 mps 736 mmHg 73%
    19:00 +23°C° 0.2 mm 1 mps 736 mmHg 75%
    20:00 +21°C° 0.2 mm 1 mps 736 mmHg 78%
    21:00 +18°C° 0.2 mm 0 mps 737 mmHg 80%
    22:00 +19°C° 0 mm 1 mps 737 mmHg 82%
    23:00 +18°C° 0 mm 1 mps 737 mmHg 85%
    Show more